User: anonymous
Location: Unspecified
(0.0000°N, 0.0000°E)
Time: 13:48:56
(UTC+02:00)
Language:

CZ-2C R/B - Orbit

View from above orbital plane
View from above orbital plane
View from above satellite
View from above satellite

Ground track
Ground track

The orbit data is extracted from the following two-line orbital elements,

1 28480U 04046B   14262.02745057  .00000106  00000-0  56517-4 0  4317
2 28480 098.1027 050.8420 0141394 304.5055 189.4500 14.25331252511455
Epoch (UTC): 19 September 2014 00:39:31
Eccentricity: 0.0141394
inclination: 98.1027°
perigee height: 706 km
apogee height: 909 km
right ascension of ascending node: 50.8420°
argument of perigee: 304.5055°
revolutions per day: 14.25331252
mean anomaly at epoch: 189.4500°
orbit number at epoch: 51145

The dashed part of the orbit path shows where the satellite is in the earth's shadow,  

DLR